Track NAVSTAR 60 (USA 196) now! NAVSTAR 60 (USA 196) is classified as:
1 32260U 07047A 25170.26131800 -.00000008 00000-0 00000-0 0 9996 2 32260 53.8299 95.0521 0161514 81.6003 280.2214 2.00572045129533